Regional Weather Roundup
Issued by NWS Green Bay, WI

Home | Current Version | Previous Version | Graphics & Text | Print | Product List | Glossary Off
Versions: 1 2 3 4 5 6 7 8 9 10 11 12 13 14 15 16 17 18 19 20 21 22 23 24 25 26 27 28 29 30 31 32 33 34 35 36 37 38 39 40 41 42 43 44 45 46 47 48 49 50

000
ASUS43 KGRB 242159
RWRGRB

NORTH-CENTRAL AND NORTHEAST WISCONSIN REGIONAL WEATHER ROUNDUP
NATIONAL WEATHER SERVICE GREEN BAY WI
500 PM CDT FRI OCT 24 2014

WIZ005-009-010>012-018-019-242300-
NORTH CENTRAL WISCONSIN

CITY           SKY/WX    TMP DP  RH WIND       PRES   REMARKS
IRONWOOD       PTCLDY    64  48  55 SW12G18   29.76S
MANITOWISH WTR NOT AVBL
ARBOR VITAE    NOT AVBL
EAGLE RIVER    NOT AVBL
LAND O LAKES   NOT AVBL
RHINELANDER    CLOUDY    57  44  62 S7        29.87S
PHILLIPS       NOT AVBL
ANTIGO         NOT AVBL
TOMAHAWK       NOT AVBL
MERRILL        NOT AVBL
$$

WIZ013-073-242300-
NORTHEAST WISCONSIN

CITY           SKY/WX    TMP DP  RH WIND       PRES   REMARKS
IRON MOUNTAIN  CLEAR     60  48  64 SE7       29.85S
MARINETTE      CLEAR     54  46  76 S7        29.89F
$$

WIZ017-030-035>037-045-242300-
CENTRAL WISCONSIN

CITY           SKY/WX    TMP DP  RH WIND       PRES   REMARKS
MEDFORD        NOT AVBL
WAUSAU         CLOUDY    57  47  69 S6        29.86F
MOSINEE        MOCLDY    55  52  88 S6        29.89S
MARSHFIELD     CLOUDY    58  50  75 S6        29.87S
WISC RAPIDS    CLOUDY    59  50  72 S8        29.89F
STEVENS POINT  NOT AVBL
WAUPACA        NOT AVBL
SHAWANO        NOT AVBL
CLINTONVILLE   NOT AVBL
$$

WIZ038-039-048-051-242300-
FOX VALLEY

CITY           SKY/WX    TMP DP  RH WIND       PRES   REMARKS
NWS GREEN BAY  MOCLDY    53  49  86 S7        29.91F FOG
APPLETON       MOCLDY    54  50  87 S8        29.92F
OSHKOSH        PTCLDY    56  51  84 S7        29.91F
FOND DU LAC    MOCLDY    57  49  74 S8        29.91F
$$

WIZ022-050-052-242300-
EAST CENTRAL WISCONSIN

CITY           SKY/WX    TMP DP  RH WIND       PRES   REMARKS
STURGEON BAY   CLEAR     55  48  76 CALM      29.92S
MANITOWOC      NOT AVBL
SHEBOYGAN      CLEAR     60  48  64 SW7       29.92F
$$

LMZ563-521-522-541>543-242300-
LAKESHORE

STATION/POSITION TIME  TEMP    WIND        PRES    VSBY  WAVE
                       AIR SEA DIR/SP/G                  HT/PER
                 (UTC) (F)     (DEG/KT/KT) (MB)    (MI)  (FT/S)
SHEBOYGAN LKSHOR 2100   50 51  170/ 13/ 15 1014.0F
KEWAUNEE LKSHORE 2100   50     180/ 14/ 15 1012.3F
TWO RIVERS CG    2100   49                 1014.1S     6   2
NORTHPORT PIER   2100   54     150/  3/  5 1012.5F
N MID LAKE BUOY  2100   49 51  210/ 16/ 19 1013.1F         2/ 3
SISTER BAY LKSHO 2100          270/  9/ 10   N/A
STURGEON BAY CG  2100   50 50  180/ 12     1014.4      6   2
CHAMBERS ISLAND  2100   50     210/  6/ 12 1013.2S
MENOMINEE LKSHOR 2100   51     170/  9/ 11 1013.2F
$$



USA.gov is the U.S. government's official web portal to all federal, state and local government web resources and services.